TOPSWRTT 000
TTAA00 KICT 020212

Wichita AWIPS Roundup
National Weather Service Wichita KS
900 PM CDT FRI AUG 01 2014

....Central Kansas....
  
CITY           SKY/WX    TMP DP  RH WIND       PRES   REMARKS
RUSSELL        CLEAR     75  55  49 NE5       30.06S                  
SALINA         CLEAR     80  57  45 N8        30.03R HX  80           
GREAT BEND       N/A     79  55  44 NE8       30.06R                  
ELLSWORTH      CLEAR     72  48  43 N7        30.05S                  
MCPHERSON      CLEAR     73  48  40 N7        30.04R                  
HAYS           PTCLDY    79  52  38 E8        30.09R                  

....South Central Kansas....
  
CITY           SKY/WX    TMP DP  RH WIND       PRES   REMARKS
HUTCHINSON     CLEAR     75  53  46 N6        30.04R                  
NEWTON         CLEAR     77  45  31 N5        30.06S                  
KINGMAN        CLEAR     79  61  53 CALM      30.04R HX  80           
WICHITA (ICT)  PTCLDY    79  65  62 S12       30.02R HX  81           
JABARA ARPT    CLEAR     78  66  66 S9        30.02R HX  80           
MCCONNELL AFB  CLEAR     76  68  77 S5        30.03R                  
EL DORADO      FAIR      77  64  65 S9        30.03R                  
HARPER           N/A     81  66  61 CALM      30.06R HX  83           
WELLINGTON     CLEAR     77  66  69 CALM      30.04R                  
WINFIELD       CLEAR     75  67  76 S8        30.04R                  
 
....Southeast Kansas....
  
CITY           SKY/WX    TMP DP  RH WIND       PRES   REMARKS
EUREKA         CLEAR     73  66  78 SE6       30.03S                  
CHANUTE        CLEAR     72  64  76 S5        30.04R                  
PARSONS        CLEAR     71  65  81 CALM      30.05R                  
COFFEYVILLE    CLEAR     76  64  66 S5        30.03S                  
INDEPENDENCE   CLEAR     72  64  78 S3        30.04R                  
FORT SCOTT     CLEAR     77  64  65 MISG      30.04R                  
PITTSBURG      CLEAR     76  71  83 CALM      30.04S                  

....Western Kansas....
  
CITY           SKY/WX    TMP DP  RH WIND       PRES   REMARKS
GOODLAND       MOCLDY    73  53  49 S8        30.17S                  
HILL CITY      PTCLDY    78  52  40 E8        30.10R                  
LIBERAL        PTCLDY    81  52  36 E7        30.14R HX  80           
GARDEN CITY    CLOUDY    80  50  34 E7        30.13R HX  80           
DODGE CITY     PTCLDY    74  60  61 SE6       30.11R                  
PRATT          CLEAR     79  54  41 NE3       30.08R                  
MEDICINE LODGE   N/A     81  62  52 E6        30.03R HX  82           

....Northeast Kansas....
  
CITY           SKY/WX    TMP DP  RH WIND       PRES   REMARKS
CONCORDIA      CLEAR     75  63  66 N7        30.05R                  
TOPEKA         PTCLDY    79  64  60 E6        30.03R HX  81           
MANHATTAN      CLEAR     80  63  55 E8        30.00R HX  81           
LAWRENCE       CLEAR     75  63  66 E8        30.04R                  
OLATHE         CLEAR     76  62  62 SE5       30.05R                  
EMPORIA        CLEAR     76  64  66 S10       30.03R                  

....Oklahoma....
  
CITY           SKY/WX    TMP DP  RH WIND       PRES   REMARKS
GAGE           CLEAR     77  60  55 E5        30.08R                  
PONCA CITY     PTCLDY    77  66  68 SE9       30.03R                  
BARTLESVILLE   CLEAR     70  67  90 CALM      30.05R                  
TULSA          PTCLDY    77  64  64 SE5       30.02S                  
OKLAHOMA CITY  MOCLDY    74  64  71 SE6       30.06R                  

Note: "fair" indicates few or no clouds below 12,000 feet with no
significant weather and/or obstructions to visibility.
  

USA.gov is the U.S. government's official web portal to all federal, state and local government web resources and services.